THORAD DELTA 1 DEB, 9697

Orbit data source: Space-Track

THORAD DELTA 1 DEB, 9697 is space debris in SSO originally from a launch on Fri, 15 Nov 1974 UTC launched from the Air Force Western Test Range (AFWTR). Debris objects in space refer to the collection of defunct objects orbiting the Earth. Examples of debris include non-operational satellites, rocket bodies, and fragments generated from explosions, collisions, or faulty payload assembly.

Loading next visibility...
Identifier
9697, 1974-089DW
Orbit
SSO
Country
Flag of USUS
Related business
Manufacturer
Unknown
Mission
Spacecraft
Bus & Motor
Unknown
Mass
Unknown
Launch date (UTC)
1974-11-15 (51 years ago)
Launch vehicle
Unknown
Launch site
Air Force Western Test Range (AFWTR)
Object type
Payload
Rocket body
Debris
Shape & HBR
Unknown shape, 0.1 m
Radar Cross Section
Small (<0.1 m²)

Expand to show TLE details & history
Last TLE update: 11 hours ago

TLE from 11 hours ago
0 THORAD DELTA 1 DEB
1 09697U 74089DW  26072.79138413 -.00000034  00000-0  70635-4 0  9995
2 09697 101.8033 185.8749 0144130 274.9001 240.3791 12.53774818347328
Epoch: 2026-03-13T18:59Z
TLE epoch observation values (Epoch: 2026-03-13T18:59:35.588Z)
Latitude
25.5813°
Longitude
-84.73196°
Altitude
1,508.532 km
Speed
7.087 km/s
True Right ascension
00h 46m 21s
True Declination
25° 27' 37"
Sunlit
Object was in daylight at epoch
Visualization orbit readout
Latitude
Unknown
Longitude
Unknown
Altitude
Unknown
Speed
Unknown
Apparent Right ascension
Unknown
Apparent Declination
Unknown
Sunlit
N/A
Visualization observer readout
Local Sidereal Time
10:28:59
Azimuth
Unknown
Elevation
Unknown
Doppler factor
Unknown
Orbital elements
Apogee altitude
1,559.063 km
Perigee altitude
1,333.516 km
Semi-major axis
7,824.427 km
Eccentricity
0.01441
Inclination
101.8033°
RAAN
185.8749°
Arg. of periapsis
274.9001°
True anomaly
238.95616°
Mean anomaly
240.3791°
Eccentric anomaly
239.66635°
Mean motion
3.13592 °/min
Orbital period
114.8 mins
BSTAR
0.000070635
Loading maneuver chart data...
Computing Atmospheric mass density...

Documentation

Showing up to 5 results
|